Year,Month,Day,Hour,Minute,Value (Times are PST for temperature in C)
2019,04,01,00,00,6.80
2019,04,01,00,01,6.80
2019,04,01,00,02,6.80
2019,04,01,00,03,6.80
2019,04,01,00,04,6.80
2019,04,01,00,05,6.80
2019,04,01,00,06,6.80
2019,04,01,00,07,6.80
2019,04,01,00,08,6.80
2019,04,01,00,09,6.80
2019,04,01,00,10,6.80
2019,04,01,00,11,6.80
2019,04,01,00,12,6.70
2019,04,01,00,13,6.70
2019,04,01,00,14,6.70
2019,04,01,00,15,6.70
2019,04,01,00,16,6.60
2019,04,01,00,17,6.60
2019,04,01,00,18,6.60
2019,04,01,00,19,6.60
2019,04,01,00,20,6.60
2019,04,01,00,21,6.60
2019,04,01,00,22,6.50
2019,04,01,00,23,6.50
2019,04,01,00,24,6.50
2019,04,01,00,25,6.50
2019,04,01,00,26,6.40
2019,04,01,00,27,6.40
2019,04,01,00,28,6.40
2019,04,01,00,29,6.50
2019,04,01,00,30,6.50
2019,04,01,00,31,6.40
2019,04,01,00,32,6.40
2019,04,01,00,33,6.40
2019,04,01,00,34,6.40
2019,04,01,00,35,6.30
2019,04,01,00,36,6.30
2019,04,01,00,37,6.30
2019,04,01,00,38,6.30
2019,04,01,00,39,6.30
2019,04,01,00,40,6.20
2019,04,01,00,41,6.20
2019,04,01,00,42,6.20
2019,04,01,00,43,6.20
2019,04,01,00,44,6.20
2019,04,01,00,45,6.20
2019,04,01,00,46,6.20
2019,04,01,00,47,6.20
2019,04,01,00,48,6.20
2019,04,01,00,49,6.20
2019,04,01,00,50,6.20
2019,04,01,00,51,6.10
2019,04,01,00,52,6.10
2019,04,01,00,53,6.10
2019,04,01,00,54,6.10
2019,04,01,00,55,6.00
2019,04,01,00,56,6.00
2019,04,01,00,57,5.90
2019,04,01,00,58,5.90
2019,04,01,00,59,5.90
2019,04,01,01,00,5.90
2019,04,01,01,01,5.80
2019,04,01,01,02,5.80
2019,04,01,01,03,5.80
2019,04,01,01,04,5.70
2019,04,01,01,05,5.70
2019,04,01,01,06,5.70
2019,04,01,01,07,5.70
2019,04,01,01,08,5.60
2019,04,01,01,09,5.70
2019,04,01,01,10,5.70
2019,04,01,01,11,5.80
2019,04,01,01,12,6.00
2019,04,01,01,13,6.10
2019,04,01,01,14,6.20
2019,04,01,01,15,6.30
2019,04,01,01,16,6.40
2019,04,01,01,17,6.40
2019,04,01,01,18,6.40
2019,04,01,01,19,6.40
2019,04,01,01,20,6.40
2019,04,01,01,21,6.40
2019,04,01,01,22,6.40
2019,04,01,01,23,6.40
2019,04,01,01,24,6.40
2019,04,01,01,25,6.40
2019,04,01,01,26,6.40
2019,04,01,01,27,6.40
2019,04,01,01,28,6.50
2019,04,01,01,29,6.60
2019,04,01,01,30,6.80
2019,04,01,01,31,6.80
2019,04,01,01,32,6.90
2019,04,01,01,33,6.90
2019,04,01,01,34,7.00
2019,04,01,01,35,7.10
2019,04,01,01,36,7.10
2019,04,01,01,37,7.20
2019,04,01,01,38,7.20
2019,04,01,01,39,7.20
2019,04,01,01,40,7.20
2019,04,01,01,41,7.20
2019,04,01,01,42,7.20
2019,04,01,01,43,7.20
2019,04,01,01,44,7.20
2019,04,01,01,45,7.20
2019,04,01,01,46,7.10
2019,04,01,01,47,7.10
2019,04,01,01,48,7.10
2019,04,01,01,49,7.10
2019,04,01,01,50,7.10
2019,04,01,01,51,7.10
2019,04,01,01,52,7.10
2019,04,01,01,53,7.10
2019,04,01,01,54,7.10
2019,04,01,01,55,7.10
2019,04,01,01,56,7.10
2019,04,01,01,57,7.00
2019,04,01,01,58,7.00
2019,04,01,01,59,6.90
2019,04,01,02,00,6.90
2019,04,01,02,01,6.90
2019,04,01,02,02,6.80
2019,04,01,02,03,6.80
2019,04,01,02,04,6.80
2019,04,01,02,05,6.70
2019,04,01,02,06,6.60
2019,04,01,02,07,6.50
2019,04,01,02,08,6.40
2019,04,01,02,09,6.30
2019,04,01,02,10,6.30
2019,04,01,02,11,6.20
2019,04,01,02,12,6.10
2019,04,01,02,13,6.00
2019,04,01,02,14,5.90
2019,04,01,02,15,5.90
2019,04,01,02,16,5.90
2019,04,01,02,17,5.90
2019,04,01,02,18,6.00
2019,04,01,02,19,6.00
2019,04,01,02,20,6.10
2019,04,01,02,21,6.10
2019,04,01,02,22,6.10
2019,04,01,02,23,6.10
2019,04,01,02,24,6.10
2019,04,01,02,25,6.00
2019,04,01,02,26,6.00
2019,04,01,02,27,5.90
2019,04,01,02,28,5.90
2019,04,01,02,29,5.80
2019,04,01,02,30,5.80
2019,04,01,02,31,5.80
2019,04,01,02,32,5.80
2019,04,01,02,33,5.80
2019,04,01,02,34,5.80
2019,04,01,02,35,5.80
2019,04,01,02,36,5.90
2019,04,01,02,37,5.90
2019,04,01,02,38,6.00
2019,04,01,02,39,6.10
2019,04,01,02,40,6.10
2019,04,01,02,41,6.20
2019,04,01,02,42,6.20
2019,04,01,02,43,6.30
2019,04,01,02,44,6.30
2019,04,01,02,45,6.30
2019,04,01,02,46,6.40
2019,04,01,02,47,6.40
2019,04,01,02,48,6.30
2019,04,01,02,49,6.30
2019,04,01,02,50,6.30
2019,04,01,02,51,6.30
2019,04,01,02,52,6.20
2019,04,01,02,53,6.20
2019,04,01,02,54,6.30
2019,04,01,02,55,6.30
2019,04,01,02,56,6.40
2019,04,01,02,57,6.40
2019,04,01,02,58,6.40
2019,04,01,02,59,6.40
2019,04,01,03,00,6.40
2019,04,01,03,01,6.50
2019,04,01,03,02,6.50
2019,04,01,03,03,6.50
2019,04,01,03,04,6.40
2019,04,01,03,05,6.40
2019,04,01,03,06,6.40
2019,04,01,03,07,6.30
2019,04,01,03,08,6.30
2019,04,01,03,09,6.20
2019,04,01,03,10,6.10
2019,04,01,03,11,6.10
2019,04,01,03,12,6.00
2019,04,01,03,13,5.90
2019,04,01,03,14,5.80
2019,04,01,03,15,5.80
2019,04,01,03,16,5.70
2019,04,01,03,17,5.70
2019,04,01,03,18,5.60
2019,04,01,03,19,5.60
2019,04,01,03,20,5.50
2019,04,01,03,21,5.50
2019,04,01,03,22,5.40
2019,04,01,03,23,5.40
2019,04,01,03,24,5.40
2019,04,01,03,25,5.30
2019,04,01,03,26,5.30
2019,04,01,03,27,5.30
2019,04,01,03,28,5.30
2019,04,01,03,29,5.30
2019,04,01,03,30,5.30
2019,04,01,03,31,5.30
2019,04,01,03,32,5.20
2019,04,01,03,33,5.20
2019,04,01,03,34,5.20
2019,04,01,03,35,5.20
2019,04,01,03,36,5.20
2019,04,01,03,37,5.20
2019,04,01,03,38,5.20
2019,04,01,03,39,5.20
2019,04,01,03,40,5.20
2019,04,01,03,41,5.20
2019,04,01,03,42,5.20
2019,04,01,03,43,5.20
2019,04,01,03,44,5.20
2019,04,01,03,45,5.20
2019,04,01,03,46,5.20
2019,04,01,03,47,5.20
2019,04,01,03,48,5.20
2019,04,01,03,49,5.20
2019,04,01,03,50,5.10
2019,04,01,03,51,5.10
2019,04,01,03,52,5.10
2019,04,01,03,53,5.10
2019,04,01,03,54,5.10
2019,04,01,03,55,5.10
2019,04,01,03,56,5.10
2019,04,01,03,57,5.10
2019,04,01,03,58,5.20
2019,04,01,03,59,5.20
2019,04,01,04,00,5.20
2019,04,01,04,01,5.20
2019,04,01,04,02,5.20
2019,04,01,04,03,5.20
2019,04,01,04,04,5.20
2019,04,01,04,05,5.20
2019,04,01,04,06,5.20
2019,04,01,04,07,5.20
2019,04,01,04,08,5.20
2019,04,01,04,09,5.20
2019,04,01,04,10,5.30
2019,04,01,04,11,5.30
2019,04,01,04,12,5.30
2019,04,01,04,13,5.20
2019,04,01,04,14,5.20
2019,04,01,04,15,5.30
2019,04,01,04,16,5.30
2019,04,01,04,17,5.30
2019,04,01,04,18,5.30
2019,04,01,04,19,5.30
2019,04,01,04,20,5.40
2019,04,01,04,21,5.60
2019,04,01,04,22,5.70
2019,04,01,04,23,5.80
2019,04,01,04,24,5.90
2019,04,01,04,25,6.10
2019,04,01,04,26,6.20
2019,04,01,04,27,6.30
2019,04,01,04,28,6.50
2019,04,01,04,29,6.50
2019,04,01,04,30,6.60
2019,04,01,04,31,6.60
2019,04,01,04,32,6.60
2019,04,01,04,33,6.60
2019,04,01,04,34,6.60
2019,04,01,04,35,6.50
2019,04,01,04,36,6.50
2019,04,01,04,37,6.40
2019,04,01,04,38,6.30
2019,04,01,04,39,6.20
2019,04,01,04,40,6.10
2019,04,01,04,41,6.20
2019,04,01,04,42,6.20
2019,04,01,04,43,6.30
2019,04,01,04,44,6.20
2019,04,01,04,45,6.20
2019,04,01,04,46,6.20
2019,04,01,04,47,6.20
2019,04,01,04,48,6.20
2019,04,01,04,49,6.20
2019,04,01,04,50,6.30
2019,04,01,04,51,6.40
2019,04,01,04,52,6.50
2019,04,01,04,53,6.60
2019,04,01,04,54,6.70
2019,04,01,04,55,6.80
2019,04,01,04,56,6.80
2019,04,01,04,57,6.80
2019,04,01,04,58,6.90
2019,04,01,04,59,6.90
2019,04,01,05,00,6.80
2019,04,01,05,01,6.70
2019,04,01,05,02,6.60
2019,04,01,05,03,6.40
2019,04,01,05,04,6.30
2019,04,01,05,05,6.10
2019,04,01,05,06,5.90
2019,04,01,05,07,5.80
2019,04,01,05,08,5.70
2019,04,01,05,09,5.60
2019,04,01,05,10,5.70
2019,04,01,05,11,5.80
2019,04,01,05,12,5.80
2019,04,01,05,13,5.90
2019,04,01,05,14,5.90
2019,04,01,05,15,6.10
2019,04,01,05,16,6.20
2019,04,01,05,17,6.30
2019,04,01,05,18,6.50
2019,04,01,05,19,6.60
2019,04,01,05,20,6.70
2019,04,01,05,21,6.80
2019,04,01,05,22,6.90
2019,04,01,05,23,6.90
2019,04,01,05,24,7.00
2019,04,01,05,25,6.90
2019,04,01,05,26,6.90
2019,04,01,05,27,6.80
2019,04,01,05,28,6.80
2019,04,01,05,29,6.80
2019,04,01,05,30,6.80
2019,04,01,05,31,6.80
2019,04,01,05,32,6.70
2019,04,01,05,33,6.70
2019,04,01,05,34,6.70
2019,04,01,05,35,6.60
2019,04,01,05,36,6.50
2019,04,01,05,37,6.50
2019,04,01,05,38,6.40
2019,04,01,05,39,6.40
2019,04,01,05,40,6.40
2019,04,01,05,41,6.50
2019,04,01,05,42,6.50
2019,04,01,05,43,6.60
2019,04,01,05,44,6.60
2019,04,01,05,45,6.60
2019,04,01,05,46,6.60
2019,04,01,05,47,6.60
2019,04,01,05,48,6.60
2019,04,01,05,49,6.60
2019,04,01,05,50,6.60
2019,04,01,05,51,6.50
2019,04,01,05,52,6.50
2019,04,01,05,53,6.40
2019,04,01,05,54,6.40
2019,04,01,05,55,6.40
2019,04,01,05,56,6.40
2019,04,01,05,57,6.30
2019,04,01,05,58,6.30
2019,04,01,05,59,6.30
2019,04,01,06,00,6.30
2019,04,01,06,01,6.20
2019,04,01,06,02,6.20
2019,04,01,06,03,6.20
2019,04,01,06,04,6.10
2019,04,01,06,05,6.00
2019,04,01,06,06,6.00
2019,04,01,06,07,5.90
2019,04,01,06,08,5.90
2019,04,01,06,09,5.90
2019,04,01,06,10,5.90
2019,04,01,06,11,5.90
2019,04,01,06,12,5.90
2019,04,01,06,13,5.90
2019,04,01,06,14,5.80
2019,04,01,06,15,5.80
2019,04,01,06,16,5.80
2019,04,01,06,17,5.80
2019,04,01,06,18,5.80
2019,04,01,06,19,5.80
2019,04,01,06,20,5.80
2019,04,01,06,21,5.70
2019,04,01,06,22,5.70
2019,04,01,06,23,5.70
2019,04,01,06,24,5.70
2019,04,01,06,25,5.70
2019,04,01,06,26,5.70
2019,04,01,06,27,5.70
2019,04,01,06,28,5.70
2019,04,01,06,29,5.70
2019,04,01,06,30,5.70
2019,04,01,06,31,5.70
2019,04,01,06,32,5.70
2019,04,01,06,33,5.60
2019,04,01,06,34,5.70
2019,04,01,06,35,5.60
2019,04,01,06,36,5.70
2019,04,01,06,37,5.60
2019,04,01,06,38,5.60
2019,04,01,06,39,5.60
2019,04,01,06,40,5.60
2019,04,01,06,41,5.60
2019,04,01,06,42,5.50
2019,04,01,06,43,5.50
2019,04,01,06,44,5.40
2019,04,01,06,45,5.40
2019,04,01,06,46,5.40
2019,04,01,06,47,5.30
2019,04,01,06,48,5.30
2019,04,01,06,49,5.30
2019,04,01,06,50,5.30
2019,04,01,06,51,5.30
2019,04,01,06,52,5.20
2019,04,01,06,53,5.20
2019,04,01,06,54,5.20
2019,04,01,06,55,5.30
2019,04,01,06,56,5.30
2019,04,01,06,57,5.30
2019,04,01,06,58,5.30
2019,04,01,06,59,5.30
2019,04,01,07,00,5.30
2019,04,01,07,01,5.30
2019,04,01,07,02,5.40
2019,04,01,07,03,5.30
2019,04,01,07,04,5.30
2019,04,01,07,05,5.30
2019,04,01,07,06,5.30
2019,04,01,07,07,5.30
2019,04,01,07,08,5.40
2019,04,01,07,09,5.40
2019,04,01,07,10,5.40
2019,04,01,07,11,5.50
2019,04,01,07,12,5.40
2019,04,01,07,13,5.50
2019,04,01,07,14,5.50
2019,04,01,07,15,5.50
2019,04,01,07,16,5.60
2019,04,01,07,17,5.60
2019,04,01,07,18,5.60
2019,04,01,07,19,5.60
2019,04,01,07,20,5.50
2019,04,01,07,21,5.50
2019,04,01,07,22,5.50
2019,04,01,07,23,5.60
2019,04,01,07,24,5.70
2019,04,01,07,25,5.70
2019,04,01,07,26,5.70
2019,04,01,07,27,5.70
2019,04,01,07,28,5.70
2019,04,01,07,29,5.80
2019,04,01,07,30,5.90
2019,04,01,07,31,6.10
2019,04,01,07,32,6.20
2019,04,01,07,33,6.40
2019,04,01,07,34,6.60
2019,04,01,07,35,6.80
2019,04,01,07,36,7.00
2019,04,01,07,37,7.20
2019,04,01,07,38,7.40
2019,04,01,07,39,7.60
2019,04,01,07,40,7.70
2019,04,01,07,41,7.90
2019,04,01,07,42,8.00
2019,04,01,07,43,8.10
2019,04,01,07,44,8.20
2019,04,01,07,45,8.30
2019,04,01,07,46,8.40
2019,04,01,07,47,8.60
2019,04,01,07,48,8.70
2019,04,01,07,49,8.80
2019,04,01,07,50,8.90
2019,04,01,07,51,9.00
2019,04,01,07,52,9.10
2019,04,01,07,53,9.20
2019,04,01,07,54,9.20
2019,04,01,07,55,9.20
2019,04,01,07,56,9.20
2019,04,01,07,57,9.20
2019,04,01,07,58,9.20
2019,04,01,07,59,9.20
2019,04,01,08,00,9.20
2019,04,01,08,01,9.20
2019,04,01,08,02,9.20
2019,04,01,08,03,9.20
2019,04,01,08,04,9.10
2019,04,01,08,05,9.00
2019,04,01,08,06,8.90
2019,04,01,08,07,8.90
2019,04,01,08,08,8.80
2019,04,01,08,09,8.80
2019,04,01,08,10,8.70
2019,04,01,08,11,8.60
2019,04,01,08,12,8.60
2019,04,01,08,13,8.60
2019,04,01,08,14,8.50
2019,04,01,08,15,8.50
2019,04,01,08,16,8.40
2019,04,01,08,17,8.40
2019,04,01,08,18,8.50
2019,04,01,08,19,8.50
2019,04,01,08,20,8.50
2019,04,01,08,21,8.50
2019,04,01,08,22,8.60
2019,04,01,08,23,8.60
2019,04,01,08,24,8.60
2019,04,01,08,25,8.70
2019,04,01,08,26,8.80
2019,04,01,08,27,8.90
2019,04,01,08,28,9.00
2019,04,01,08,29,9.00
2019,04,01,08,30,9.10
2019,04,01,08,31,9.10
2019,04,01,08,32,9.20
2019,04,01,08,33,9.30
2019,04,01,08,34,9.40
2019,04,01,08,35,9.50
2019,04,01,08,36,9.50
2019,04,01,08,37,9.60
2019,04,01,08,38,9.60
2019,04,01,08,39,9.60
2019,04,01,08,40,9.60
2019,04,01,08,41,9.60
2019,04,01,08,42,9.60
2019,04,01,08,43,9.60
2019,04,01,08,44,9.60
2019,04,01,08,45,9.70
2019,04,01,08,46,9.70
2019,04,01,08,47,9.80
2019,04,01,08,48,9.80
2019,04,01,08,49,9.90
2019,04,01,08,50,10.00
2019,04,01,08,51,10.10
2019,04,01,08,52,10.20
2019,04,01,08,53,10.30
2019,04,01,08,54,10.40
2019,04,01,08,55,10.50
2019,04,01,08,56,10.60
2019,04,01,08,57,10.70
2019,04,01,08,58,10.80
2019,04,01,08,59,10.90
2019,04,01,09,00,11.00
2019,04,01,09,01,11.10
2019,04,01,09,02,11.10
2019,04,01,09,03,11.20
2019,04,01,09,04,11.30
2019,04,01,09,05,11.40
2019,04,01,09,06,11.40
2019,04,01,09,07,11.40
2019,04,01,09,08,11.40
2019,04,01,09,09,11.40
2019,04,01,09,10,11.40
2019,04,01,09,11,11.40
2019,04,01,09,12,11.50
2019,04,01,09,13,11.50
2019,04,01,09,14,11.50
2019,04,01,09,15,11.60
2019,04,01,09,16,11.60
2019,04,01,09,17,11.60
2019,04,01,09,18,11.70
2019,04,01,09,19,11.70
2019,04,01,09,20,11.80
2019,04,01,09,21,11.80
2019,04,01,09,22,11.80
2019,04,01,09,23,11.90
2019,04,01,09,24,12.00
2019,04,01,09,25,12.10
2019,04,01,09,26,12.10
2019,04,01,09,27,12.10
2019,04,01,09,28,12.10
2019,04,01,09,29,12.10
2019,04,01,09,30,12.10
2019,04,01,09,31,12.20
2019,04,01,09,32,12.20
2019,04,01,09,33,12.30
2019,04,01,09,34,12.30
2019,04,01,09,35,12.30
2019,04,01,09,36,12.20
2019,04,01,09,37,12.10
2019,04,01,09,38,12.10
2019,04,01,09,39,12.10
2019,04,01,09,40,12.20
2019,04,01,09,41,12.20
2019,04,01,09,42,12.30
2019,04,01,09,43,12.30
2019,04,01,09,44,12.30
2019,04,01,09,45,12.30
2019,04,01,09,46,12.30
2019,04,01,09,47,12.30
2019,04,01,09,48,12.30
2019,04,01,09,49,12.30
2019,04,01,09,50,12.30
2019,04,01,09,51,12.30
2019,04,01,09,52,12.30
2019,04,01,09,53,12.40
2019,04,01,09,54,12.40
2019,04,01,09,55,12.40
2019,04,01,09,56,12.50
2019,04,01,09,57,12.50
2019,04,01,09,58,12.50
2019,04,01,09,59,12.50
2019,04,01,10,00,12.50
2019,04,01,10,01,12.50
2019,04,01,10,02,12.50
2019,04,01,10,03,12.60
2019,04,01,10,04,12.70
2019,04,01,10,05,12.80
2019,04,01,10,06,12.80
2019,04,01,10,07,12.80
2019,04,01,10,08,12.90
2019,04,01,10,09,12.90
2019,04,01,10,10,12.90
2019,04,01,10,11,12.90
2019,04,01,10,12,12.90
2019,04,01,10,13,13.00
2019,04,01,10,14,13.10
2019,04,01,10,15,13.10
2019,04,01,10,16,13.10
2019,04,01,10,17,13.10
2019,04,01,10,18,13.10
2019,04,01,10,19,13.10
2019,04,01,10,20,13.10
2019,04,01,10,21,13.10
2019,04,01,10,22,13.20
2019,04,01,10,23,13.30
2019,04,01,10,24,13.30
2019,04,01,10,25,13.40
2019,04,01,10,26,13.40
2019,04,01,10,27,13.40
2019,04,01,10,28,13.50
2019,04,01,10,29,13.40
2019,04,01,10,30,13.50
2019,04,01,10,31,13.60
2019,04,01,10,32,13.60
2019,04,01,10,33,13.60
2019,04,01,10,34,13.70
2019,04,01,10,35,13.70
2019,04,01,10,36,13.70
2019,04,01,10,37,13.80
2019,04,01,10,38,13.80
2019,04,01,10,39,13.90
2019,04,01,10,40,14.00
2019,04,01,10,41,14.00
2019,04,01,10,42,14.10
2019,04,01,10,43,14.10
2019,04,01,10,44,14.20
2019,04,01,10,45,14.30
2019,04,01,10,46,14.30
2019,04,01,10,47,14.30
2019,04,01,10,48,14.30
2019,04,01,10,49,14.30
2019,04,01,10,50,14.40
2019,04,01,10,51,14.40
2019,04,01,10,52,14.40
2019,04,01,10,53,14.50
2019,04,01,10,54,14.50
2019,04,01,10,55,14.50
2019,04,01,10,56,14.60
2019,04,01,10,57,14.50
2019,04,01,10,58,14.30
2019,04,01,10,59,14.30
2019,04,01,11,00,14.30
2019,04,01,11,01,14.30
2019,04,01,11,02,14.30
2019,04,01,11,03,14.30
2019,04,01,11,04,14.50
2019,04,01,11,05,14.60
2019,04,01,11,06,14.70
2019,04,01,11,07,14.80
2019,04,01,11,08,14.80
2019,04,01,11,09,14.90
2019,04,01,11,10,14.90
2019,04,01,11,11,14.90
2019,04,01,11,12,14.90
2019,04,01,11,13,14.80
2019,04,01,11,14,14.70
2019,04,01,11,15,14.70
2019,04,01,11,16,14.80
2019,04,01,11,17,14.80
2019,04,01,11,18,14.90
2019,04,01,11,19,14.90
2019,04,01,11,20,15.10
2019,04,01,11,21,15.10
2019,04,01,11,22,15.10
2019,04,01,11,23,15.10
2019,04,01,11,24,15.00
2019,04,01,11,25,14.90
2019,04,01,11,26,14.70
2019,04,01,11,27,14.60
2019,04,01,11,28,14.60
2019,04,01,11,29,14.70
2019,04,01,11,30,14.70
2019,04,01,11,31,14.60
2019,04,01,11,32,14.40
2019,04,01,11,33,14.30
2019,04,01,11,34,14.20
2019,04,01,11,35,14.20
2019,04,01,11,36,14.30
2019,04,01,11,37,14.20
2019,04,01,11,38,14.20
2019,04,01,11,39,14.10
2019,04,01,11,40,14.10
2019,04,01,11,41,14.10
2019,04,01,11,42,14.10
2019,04,01,11,43,14.20
2019,04,01,11,44,14.20
2019,04,01,11,45,14.10
2019,04,01,11,46,14.20
2019,04,01,11,47,14.30
2019,04,01,11,48,14.30
2019,04,01,11,49,14.50
2019,04,01,11,50,14.60
2019,04,01,11,51,14.70
2019,04,01,11,52,14.80
2019,04,01,11,53,14.90
2019,04,01,11,54,14.90
2019,04,01,11,55,15.10
2019,04,01,11,56,15.20
2019,04,01,11,57,15.30
2019,04,01,11,58,15.20
2019,04,01,11,59,15.10
2019,04,01,12,00,15.10
2019,04,01,12,01,15.00
2019,04,01,12,02,15.10
2019,04,01,12,03,15.10
2019,04,01,12,04,15.20
2019,04,01,12,05,15.30
2019,04,01,12,06,15.20
2019,04,01,12,07,15.10
2019,04,01,12,08,15.20
2019,04,01,12,09,15.20
2019,04,01,12,10,15.10
2019,04,01,12,11,15.10
2019,04,01,12,12,15.10
2019,04,01,12,13,15.20
2019,04,01,12,14,15.30
2019,04,01,12,15,15.40
2019,04,01,12,16,15.50
2019,04,01,12,17,15.70
2019,04,01,12,18,15.80
2019,04,01,12,19,16.00
2019,04,01,12,20,16.10
2019,04,01,12,21,16.10
2019,04,01,12,22,16.00
2019,04,01,12,23,15.90
2019,04,01,12,24,15.90
2019,04,01,12,25,16.00
2019,04,01,12,26,16.00
2019,04,01,12,27,16.10
2019,04,01,12,28,16.20
2019,04,01,12,29,16.30
2019,04,01,12,30,16.50
2019,04,01,12,31,16.60
2019,04,01,12,32,16.70
2019,04,01,12,33,16.80
2019,04,01,12,34,16.70
2019,04,01,12,35,16.60
2019,04,01,12,36,16.60
2019,04,01,12,37,16.70
2019,04,01,12,38,16.80
2019,04,01,12,39,16.80
2019,04,01,12,40,16.80
2019,04,01,12,41,16.70
2019,04,01,12,42,16.70
2019,04,01,12,43,16.70
2019,04,01,12,44,16.70
2019,04,01,12,45,16.80
2019,04,01,12,46,17.00
2019,04,01,12,47,17.10
2019,04,01,12,48,17.10
2019,04,01,12,49,17.10
2019,04,01,12,50,17.20
2019,04,01,12,51,17.10
2019,04,01,12,52,17.00
2019,04,01,12,53,17.00
2019,04,01,12,54,16.90
2019,04,01,12,55,16.80
2019,04,01,12,56,16.80
2019,04,01,12,57,16.80
2019,04,01,12,58,16.80
2019,04,01,12,59,16.90
2019,04,01,13,00,17.00
2019,04,01,13,01,17.20
2019,04,01,13,02,17.40
2019,04,01,13,03,17.60
2019,04,01,13,04,17.70
2019,04,01,13,05,17.70
2019,04,01,13,06,17.80
2019,04,01,13,07,17.80
2019,04,01,13,08,17.90
2019,04,01,13,09,17.90
2019,04,01,13,10,18.00
2019,04,01,13,11,18.00
2019,04,01,13,12,17.90
2019,04,01,13,13,17.80
2019,04,01,13,14,17.70
2019,04,01,13,15,17.50
2019,04,01,13,16,17.40
2019,04,01,13,17,17.50
2019,04,01,13,18,17.50
2019,04,01,13,19,17.50
2019,04,01,13,20,17.50
2019,04,01,13,21,17.60
2019,04,01,13,22,17.70
2019,04,01,13,23,17.70
2019,04,01,13,24,17.70
2019,04,01,13,25,17.70
2019,04,01,13,26,17.70
2019,04,01,13,27,17.80
2019,04,01,13,28,17.90
2019,04,01,13,29,17.90
2019,04,01,13,30,17.90
2019,04,01,13,31,17.80
2019,04,01,13,32,17.70
2019,04,01,13,33,17.60
2019,04,01,13,34,17.60
2019,04,01,13,35,17.60
2019,04,01,13,36,17.60
2019,04,01,13,37,17.60
2019,04,01,13,38,17.80
2019,04,01,13,39,17.80
2019,04,01,13,40,17.90
2019,04,01,13,41,18.00
2019,04,01,13,42,18.00
2019,04,01,13,43,18.00
2019,04,01,13,44,18.00
2019,04,01,13,45,17.90
2019,04,01,13,46,17.80
2019,04,01,13,47,17.80
2019,04,01,13,48,17.80
2019,04,01,13,49,17.80
2019,04,01,13,50,17.80
2019,04,01,13,51,17.80
2019,04,01,13,52,17.90
2019,04,01,13,53,17.90
2019,04,01,13,54,18.00
2019,04,01,13,55,17.90
2019,04,01,13,56,17.90
2019,04,01,13,57,17.90
2019,04,01,13,58,17.90
2019,04,01,13,59,17.80
2019,04,01,14,00,17.80
2019,04,01,14,01,17.70
2019,04,01,14,02,17.60
2019,04,01,14,03,17.50
2019,04,01,14,04,17.60
2019,04,01,14,05,17.60
2019,04,01,14,06,17.60
2019,04,01,14,07,17.60
2019,04,01,14,08,17.70
2019,04,01,14,09,17.80
2019,04,01,14,10,17.70
2019,04,01,14,11,17.70
2019,04,01,14,12,17.70
2019,04,01,14,13,17.70
2019,04,01,14,14,17.70
2019,04,01,14,15,17.70
2019,04,01,14,16,17.80
2019,04,01,14,17,17.80
2019,04,01,14,18,18.00
2019,04,01,14,19,18.20
2019,04,01,14,20,18.30
2019,04,01,14,21,18.40
2019,04,01,14,22,18.50
2019,04,01,14,23,18.60
2019,04,01,14,24,18.60
2019,04,01,14,25,18.60
2019,04,01,14,26,18.80
2019,04,01,14,27,18.80
2019,04,01,14,28,18.80
2019,04,01,14,29,18.90
2019,04,01,14,30,18.90
2019,04,01,14,31,18.90
2019,04,01,14,32,18.90
2019,04,01,14,33,18.90
2019,04,01,14,34,18.90
2019,04,01,14,35,18.90
2019,04,01,14,36,19.00
2019,04,01,14,37,19.10
2019,04,01,14,38,19.10
2019,04,01,14,39,19.10
2019,04,01,14,40,19.10
2019,04,01,14,41,19.00
2019,04,01,14,42,19.00
2019,04,01,14,43,19.20
2019,04,01,14,44,19.20
2019,04,01,14,45,19.20
2019,04,01,14,46,19.10
2019,04,01,14,47,19.00
2019,04,01,14,48,18.90
2019,04,01,14,49,18.90
2019,04,01,14,50,18.90
2019,04,01,14,51,18.90
2019,04,01,14,52,18.90
2019,04,01,14,53,18.80
2019,04,01,14,54,18.80
2019,04,01,14,55,18.80
2019,04,01,14,56,18.90
2019,04,01,14,57,19.00
2019,04,01,14,58,19.10
2019,04,01,14,59,19.20
2019,04,01,15,00,19.20
2019,04,01,15,01,19.20
2019,04,01,15,02,19.30
2019,04,01,15,03,19.30
2019,04,01,15,04,19.40
2019,04,01,15,05,19.40
2019,04,01,15,06,19.30
2019,04,01,15,07,19.30
2019,04,01,15,08,19.30
2019,04,01,15,09,19.20
2019,04,01,15,10,19.20
2019,04,01,15,11,19.20
2019,04,01,15,12,19.20
2019,04,01,15,13,19.20
2019,04,01,15,14,19.20
2019,04,01,15,15,19.20
2019,04,01,15,16,19.10
2019,04,01,15,17,19.10
2019,04,01,15,18,19.10
2019,04,01,15,19,19.10
2019,04,01,15,20,19.00
2019,04,01,15,21,18.90
2019,04,01,15,22,19.00
2019,04,01,15,23,19.10
2019,04,01,15,24,19.10
2019,04,01,15,25,19.10
2019,04,01,15,26,19.20
2019,04,01,15,27,19.20
2019,04,01,15,28,19.20
2019,04,01,15,29,19.20
2019,04,01,15,30,19.30
2019,04,01,15,31,19.30
2019,04,01,15,32,19.30
2019,04,01,15,33,19.20
2019,04,01,15,34,19.20
2019,04,01,15,35,19.00
2019,04,01,15,36,18.90
2019,04,01,15,37,18.80
2019,04,01,15,38,18.80
2019,04,01,15,39,18.70
2019,04,01,15,40,18.70
2019,04,01,15,41,18.70
2019,04,01,15,42,18.70
2019,04,01,15,43,18.60
2019,04,01,15,44,18.60
2019,04,01,15,45,18.60
2019,04,01,15,46,18.60
2019,04,01,15,47,18.70
2019,04,01,15,48,18.80
2019,04,01,15,49,18.80
2019,04,01,15,50,18.80
2019,04,01,15,51,18.90
2019,04,01,15,52,18.90
2019,04,01,15,53,18.80
2019,04,01,15,54,18.70
2019,04,01,15,55,18.70
2019,04,01,15,56,18.80
2019,04,01,15,57,18.80
2019,04,01,15,58,18.80
2019,04,01,15,59,18.90
2019,04,01,16,00,18.80
2019,04,01,16,01,18.90
2019,04,01,16,02,18.90
2019,04,01,16,03,18.90
2019,04,01,16,04,18.90
2019,04,01,16,05,18.90
2019,04,01,16,06,18.80
2019,04,01,16,07,18.70
2019,04,01,16,08,18.70
2019,04,01,16,09,18.80
2019,04,01,16,10,18.80
2019,04,01,16,11,18.70
2019,04,01,16,12,18.60
2019,04,01,16,13,18.60
2019,04,01,16,14,18.70
2019,04,01,16,15,18.70
2019,04,01,16,16,18.70
2019,04,01,16,17,18.60
2019,04,01,16,18,18.50
2019,04,01,16,19,18.30
2019,04,01,16,20,18.20
2019,04,01,16,21,18.10
2019,04,01,16,22,18.10
2019,04,01,16,23,18.10
2019,04,01,16,24,18.10
2019,04,01,16,25,18.10
2019,04,01,16,26,17.90
2019,04,01,16,27,17.60
2019,04,01,16,28,17.20
2019,04,01,16,29,16.90
2019,04,01,16,30,16.70
2019,04,01,16,31,16.50
2019,04,01,16,32,16.40
2019,04,01,16,33,16.30
2019,04,01,16,34,16.10
2019,04,01,16,35,16.00
2019,04,01,16,36,15.80
2019,04,01,16,37,15.80
2019,04,01,16,38,15.80
2019,04,01,16,39,15.70
2019,04,01,16,40,15.70
2019,04,01,16,41,15.60
2019,04,01,16,42,15.60
2019,04,01,16,43,15.60
2019,04,01,16,44,15.60
2019,04,01,16,45,15.60
2019,04,01,16,46,15.50
2019,04,01,16,47,15.50
2019,04,01,16,48,15.40
2019,04,01,16,49,15.40
2019,04,01,16,50,15.40
2019,04,01,16,51,15.50
2019,04,01,16,52,15.60
2019,04,01,16,53,15.50
2019,04,01,16,54,15.40
2019,04,01,16,55,15.50
2019,04,01,16,56,15.50
2019,04,01,16,57,15.40
2019,04,01,16,58,15.30
2019,04,01,16,59,15.20
2019,04,01,17,00,15.10
2019,04,01,17,01,15.00
2019,04,01,17,02,14.90
2019,04,01,17,03,14.80
2019,04,01,17,04,14.70
2019,04,01,17,05,14.60
2019,04,01,17,06,14.50
2019,04,01,17,07,14.40
2019,04,01,17,08,14.30
2019,04,01,17,09,14.20
2019,04,01,17,10,14.20
2019,04,01,17,11,14.30
2019,04,01,17,12,14.40
2019,04,01,17,13,14.40
2019,04,01,17,14,14.40
2019,04,01,17,15,14.40
2019,04,01,17,16,14.40
2019,04,01,17,17,14.40
2019,04,01,17,18,14.40
2019,04,01,17,19,14.40
2019,04,01,17,20,14.40
2019,04,01,17,21,14.40
2019,04,01,17,22,14.40
2019,04,01,17,23,14.30
2019,04,01,17,24,14.20
2019,04,01,17,25,14.20
2019,04,01,17,26,14.10
2019,04,01,17,27,14.10
2019,04,01,17,28,14.10
2019,04,01,17,29,14.10
2019,04,01,17,30,14.10
2019,04,01,17,31,14.20
2019,04,01,17,32,14.20
2019,04,01,17,33,14.20
2019,04,01,17,34,14.10
2019,04,01,17,35,14.00
2019,04,01,17,36,14.00
2019,04,01,17,37,13.90
2019,04,01,17,38,14.00
2019,04,01,17,39,14.00
2019,04,01,17,40,14.00
2019,04,01,17,41,14.10
2019,04,01,17,42,14.10